Location: Unspecified
(49.2170°N, 0.0000°E)
Time: 18:42:48
(UTC+00:00)

A-11 Canister half - Pass Details

Date: 27 January 2021
Orbit: 1516 x 1684 km, 47.2° (Epoch: 05 March)

Event Time Altitude Azimuth Distance (km) Brightness Sun altitude
Rises 21:54:16 0° 262° (W) 4,729 12.0 -48.3°
Reaches altitude 10° 21:57:21 10° 262° (W) 3,727 11.3 -48.7°
Enters shadow 22:00:48 26° 260° (W) 2,652 10.4 -49.2°
